📊 Raw Sensor Data
Showing records 38526 to 38550 of 84,930 total
| ID | Distance (ft) | Battery V | Battery A | Int Temp (°F) | Int Humid (%) | Ext Temp (°F) | Solar V | RSSI | SNR | Time Stamp |
|---|---|---|---|---|---|---|---|---|---|---|
| 46417 | 15.2 | 3.94 | -5 | 57 | 45 | 58 | 0.00 | -72 | 8 | 07/16/2025 01:00 AM |
| 46416 | 15.2 | 3.99 | -5 | 57 | 45 | 58 | 0.00 | -73 | 8 | 07/16/2025 12:45 AM |
| 46415 | 15.2 | 3.94 | -5 | 57 | 45 | 58 | 0.00 | -72 | 8 | 07/16/2025 12:30 AM |
| 46414 | 15.2 | 3.94 | -5 | 57 | 45 | 58 | 0.00 | -72 | 8 | 07/16/2025 12:15 AM |
| 46413 | 15.2 | 3.94 | -5 | 58 | 45 | 59 | 0.00 | -73 | 8 | 07/16/2025 12:00 AM |
| 46412 | 15.3 | 3.94 | -5 | 58 | 45 | 59 | 0.10 | -72 | 7 | 07/15/2025 11:45 PM |
| 46411 | 15.3 | 3.94 | -5 | 58 | 45 | 59 | 0.00 | -71 | 8 | 07/15/2025 11:30 PM |
| 46410 | 15.3 | 3.94 | -5 | 59 | 45 | 60 | 0.00 | -72 | 8 | 07/15/2025 11:15 PM |
| 46409 | 15.3 | 3.94 | -5 | 59 | 46 | 60 | 0.00 | -71 | 8 | 07/15/2025 11:00 PM |
| 46408 | 15.3 | 3.99 | -5 | 59 | 46 | 60 | 0.00 | -72 | 8 | 07/15/2025 10:45 PM |
| 46407 | 15.3 | 3.94 | -5 | 60 | 47 | 61 | 0.00 | -73 | 8 | 07/15/2025 10:15 PM |
| 46406 | 15.2 | 3.95 | -5 | 61 | 48 | 61 | 0.00 | -71 | 8 | 07/15/2025 10:00 PM |
| 46405 | 15.3 | 3.94 | -5 | 61 | 48 | 62 | 0.00 | -72 | 8 | 07/15/2025 09:45 PM |
| 46404 | 15.2 | 3.95 | -5 | 62 | 49 | 62 | 0.00 | -71 | 8 | 07/15/2025 09:30 PM |
| 46403 | 15.3 | 4.00 | -5 | 64 | 52 | 64 | 0.00 | -70 | 7 | 07/15/2025 09:00 PM |
| 46402 | 15.3 | 4.00 | -5 | 66 | 53 | 65 | 1.00 | -72 | 7 | 07/15/2025 08:45 PM |
| 46401 | 15.3 | 3.90 | -10 | 68 | 54 | 66 | 2.70 | -73 | 8 | 07/15/2025 08:30 PM |
| 46400 | 15.3 | 3.85 | 0 | 73 | 54 | 68 | 4.50 | -72 | 8 | 07/15/2025 08:15 PM |
| 46399 | 15.3 | 4.02 | 0 | 77 | 53 | 71 | 4.60 | -71 | 7 | 07/15/2025 08:00 PM |
| 46398 | 15.4 | 4.03 | 6 | 80 | 52 | 74 | 4.50 | -73 | 7 | 07/15/2025 07:45 PM |
| 46397 | 15.4 | 3.99 | 0 | 86 | 50 | 78 | 4.60 | -72 | 8 | 07/15/2025 07:15 PM |
| 46396 | 15.4 | 3.98 | 0 | 87 | 50 | 80 | 5.10 | -75 | 8 | 07/15/2025 07:00 PM |
| 46395 | 15.4 | 3.98 | 0 | 88 | 50 | 80 | 5.10 | -72 | 8 | 07/15/2025 06:45 PM |
| 46394 | 15.4 | 4.13 | 0 | 89 | 49 | 81 | 5.10 | -74 | 8 | 07/15/2025 06:30 PM |
| 46393 | 15.4 | 4.13 | 0 | 90 | 49 | 82 | 5.10 | -72 | 7 | 07/15/2025 06:15 PM |